• Join FlightAware (Why Join?)
  • Login
  • US Flag GB Flag 
02:55 EDT


 

Airport Tracker/Info


-or-


 

Live Flight TrackerFlight Track Log ✈ N53NW ✈ 14-Feb-2014 ✈ KFSD - KTWF

Flight Track Log - Related Links

Times and Time Zones

All times are in EST time to prevent confusion due to time zone crossing. See the N53NW flight status page for this flight to view local times or setup timezone preferences in your user account.

Time Position Orientation Groundspeed Altitude Reporting Facility
EST Latitude Longitude Course Direction KTS MPH feet Rate Location/Type
18:53 43.5369 -96.8397 241° Southwest 215 247 5,200  Level Minneapolis Center
18:54 43.5578 -96.9261 288° West 231 266 8,400 3,900 Climbing Minneapolis Center
18:55 43.5756 -97.0097 286° West 230 265 13,300 4,620 Climbing Minneapolis Center
18:56 43.5878 -97.1211 279° West 246 283 18,000 4,140 Climbing Minneapolis Center
18:57 43.5856 -97.2181 268° West 254 292 21,900 3,480 Climbing Minneapolis Center
18:58 43.5825 -97.3103 267° West 246 283 25,200 2,880 Climbing Minneapolis Center
18:59 43.5800 -97.4050 268° West 245 282 27,900 2,700 Climbing Minneapolis Center
19:00 43.5800 -97.4964 270° West 241 277 30,800 2,580 Climbing Minneapolis Center
19:01 43.5806 -97.5769 271° West 216 249 33,300 2,220 Climbing Minneapolis Center
19:02 43.5814 -97.6675 271° West 200 230 35,400 1,500 Climbing Minneapolis Center
19:03 43.5836 -97.7481 272° West 208 239 36,500 900 Climbing Minneapolis Center
19:04 43.5844 -97.8336 271° West 221 254 37,300 540 Climbing Minneapolis Center
19:05 43.5853 -97.9306 271° West 247 284 37,700 480 Climbing Minneapolis Center
19:06 43.5856 -98.0358 270° West 269 310 38,400 600 Climbing Minneapolis Center
19:07 43.5864 -98.1472 271° West 286 329 39,000 720 Climbing Minneapolis Center
19:08 43.5875 -98.2833 271° West 296 341 40,000 840 Climbing Minneapolis Center
19:09 43.5869 -98.3978 270° West 299 344 40,800 720 Climbing Minneapolis Center
19:10 43.5878 -98.5128 271° West 299 344 41,600 720 Climbing Minneapolis Center
19:11 43.5878 -98.6258 270° West 297 342 42,400 660 Climbing Minneapolis Center
19:12 43.5867 -98.7544 269° West 295 339 43,000 240 Climbing Minneapolis Center
19:13 43.5867 -98.8700 270° West 300 345 43,000  Level Minneapolis Center
19:14 43.5867 -98.9908 270° West 312 359 43,000  Level Minneapolis Center
19:15 43.5864 -99.1122 270° West 315 362 43,000  Level Minneapolis Center
19:16 43.5850 -99.2350 269° West 320 368 43,000  Level Minneapolis Center
19:17 43.5847 -99.3578 270° West 321 369 43,000  Level Minneapolis Center
19:18 43.5839 -99.5069 270° West 324 373 43,000  Level Minneapolis Center
19:20 43.5825 -99.6306 269° West 323 372 43,000  Level Minneapolis Center
19:21 43.5822 -99.7561 270° West 327 376 43,000  Level Minneapolis Center
19:22 43.5806 -99.8836 269° West 329 379 43,000  Level Minneapolis Center
19:23 43.5783 -100.0111 269° West 331 381 43,000  Level Minneapolis Center
19:24 43.5769 -100.1350 269° West 329 379 43,000  Level Minneapolis Center
19:25 43.5753 -100.2836 269° West 327 376 43,000  Level Minneapolis Center
19:26 43.5728 -100.3808 268° West 326 375 43,000  Level Denver Center
19:27 43.5711 -100.5089 269° West 330 380 43,000  Level Denver Center
19:28 43.5694 -100.6403 269° West 336 387 43,000  Level Denver Center
19:29 43.5675 -100.7689 269° West 338 389 43,000  Level Denver Center
19:30 43.5642 -100.8953 268° West 334 384 43,000  Level Denver Center
19:31 43.5622 -101.0483 269° West 332 382 43,000  Level Denver Center
19:32 43.5583 -101.1753 268° West 332 382 43,000  Level Denver Center
19:33 43.5569 -101.2772 269° West 332 382 43,000  Level Denver Center
19:34 43.5533 -101.4311 268° West 335 386 43,000  Level Denver Center
19:35 43.5494 -101.5608 268° West 338 389 43,000  Level Denver Center
19:36 43.5467 -101.6917 268° West 342 394 43,000  Level Denver Center
19:37 43.5414 -101.8511 267° West 348 400 43,000  Level Denver Center
19:38 43.5381 -101.9819 268° West 345 397 43,000  Level Denver Center
19:39 43.5347 -102.1147 268° West 346 398 43,000  Level Denver Center
19:40 43.5303 -102.2606 268° West 342 394 43,000  Level Denver Center
19:41 43.5261 -102.3828 267° West 337 388 43,000  Level Denver Center
19:42 43.5217 -102.5044 267° West 333 383 43,000  Level Denver Center
19:43 43.5164 -102.6442 267° West 328 377 43,000  Level Denver Center
19:44 43.5136 -102.7644 268° West 328 377 43,000  Level Denver Center
19:45 43.5078 -102.9008 267° West 321 369 43,000  Level Denver Center
19:46 43.5031 -103.0186 267° West 322 371 43,000  Level Denver Center
19:47 43.4986 -103.1553 267° West 321 369 43,000  Level Denver Center
19:48 43.4942 -103.2744 267° West 325 374 43,000  Level Denver Center
19:49 43.4894 -103.4128 267° West 325 374 43,000  Level Denver Center
19:50 43.4842 -103.5300 266° West 323 372 43,000  Level Denver Center
19:51 43.4778 -103.6675 266° West 323 372 43,000  Level Denver Center
19:52 43.4728 -103.7850 267° West 323 372 43,000  Level Denver Center
19:53 43.4656 -103.9228 266° West 324 373 43,000  Level Denver Center
19:54 43.4603 -104.0411 267° West 324 373 43,000  Level Denver Center
19:56 43.4544 -104.1786 267° West 323 372 43,000  Level Denver Center
19:57 43.4481 -104.3150 266° West 323 372 43,000  Level Denver Center
19:58 43.4403 -104.4514 266° West 322 371 43,000  Level Denver Center
19:59 43.4353 -104.5661 267° West 318 366 43,000  Level Denver Center
20:00 43.4278 -104.6994 266° West 315 362 43,000  Level Denver Center
20:01 43.4219 -104.8150 266° West 316 364 43,000  Level Denver Center
20:02 43.4153 -104.9481 266° West 315 362 43,000  Level Denver Center
20:03 43.4089 -105.0608 266° West 313 360 43,000  Level Denver Center
20:04 43.4017 -105.1919 266° West 311 358 43,000  Level Denver Center
20:05 43.3939 -105.3047 265° West 311 358 43,000  Level Denver Center
20:06 43.3872 -105.4325 266° West 305 351 43,000  Level Denver Center
20:07 43.3803 -105.5458 265° West 308 354 43,000  Level Denver Center
20:08 43.3714 -105.6922 265° West 303 349 43,000  Level Denver Center
20:09 43.3631 -105.8225 265° West 306 352 43,000  Level Denver Center
20:10 43.3556 -105.9333 265° West 305 351 43,000  Level Denver Center
20:11 43.3472 -106.0581 265° West 295 339 43,000  Level Denver Center
20:12 43.3422 -106.1589 266° West 279 321 43,000  Level Denver Center
20:14 43.3339 -106.2622 264° West 285 328 43,000  Level Denver Center
20:15 43.3258 -106.3861 265° West 291 335 43,000  Level Denver Center
20:16 43.3178 -106.4958 264° West 300 345 43,000  Level Denver Center
20:17 43.3086 -106.6275 265° West 309 356 43,000  Level Salt Lake Center
20:18 43.3000 -106.7583 265° West 309 356 43,000  Level Salt Lake Center
20:19 43.2925 -106.8711 265° West 311 358 43,000  Level Salt Lake Center
20:20 43.2819 -106.9914 263° West 314 361 43,000  Level Salt Lake Center
20:21 43.2744 -107.1122 265° West 319 367 43,000  Level Salt Lake Center
20:22 43.2647 -107.2294 264° West 312 359 43,000  Level Salt Lake Center
20:23 43.2542 -107.3683 264° West 306 352 43,000  Level Salt Lake Center
20:24 43.2458 -107.4786 264° West 295 339 43,000  Level Salt Lake Center
20:25 43.2378 -107.5872 264° West 288 331 43,000  Level Salt Lake Center
20:26 43.2289 -107.6950 264° West 285 328 43,000  Level Salt Lake Center
20:27 43.2200 -107.8028 264° West 286 329 43,000  Level Salt Lake Center
20:28 43.2117 -107.9133 264° West 290 334 43,000  Level Salt Lake Center
20:29 43.2006 -108.0489 264° West 297 342 43,000  Level Salt Lake Center
20:30 43.1919 -108.1578 264° West 291 335 43,000  Level Salt Lake Center
20:31 43.1828 -108.2700 264° West 296 341 43,000  Level Salt Lake Center
20:32 43.1725 -108.3789 263° West 292 336 43,000  Level Salt Lake Center
20:33 43.1631 -108.4956 264° West 304 350 43,000  Level Salt Lake Center
20:34 43.1525 -108.6142 263° West 313 360 43,000  Level Salt Lake Center
20:35 43.1397 -108.7628 263° West 325 374 43,000  Level Salt Lake Center
20:36 43.1289 -108.8856 263° West 326 375 43,000  Level Salt Lake Center
20:37 43.1172 -109.0097 263° West 328 377 43,000  Level Salt Lake Center
20:38 43.1061 -109.1347 263° West 331 381 43,000  Level Salt Lake Center
20:39 43.0950 -109.2597 263° West 331 381 43,000  Level Salt Lake Center
20:40 43.0831 -109.3817 262° West 326 375 43,000  Level Salt Lake Center
20:41 43.0692 -109.5289 263° West 327 376 43,000  Level Salt Lake Center
20:43 43.0567 -109.6558 262° West 335 386 43,000  Level Salt Lake Center
20:44 43.0458 -109.7750 263° West 321 369 43,000  Level Salt Lake Center
20:45 43.0331 -109.8983 262° West 307 353 43,000  Level Salt Lake Center
20:46 43.0217 -110.0072 262° West 305 351 43,000  Level Salt Lake Center
20:47 43.0097 -110.1328 263° West 301 346 43,000  Level Salt Lake Center
20:48 42.9983 -110.2397 262° West 299 344 43,000  Level Salt Lake Center
20:49 42.9875 -110.3467 262° West 298 343 43,000  Level Salt Lake Center
20:50 42.9744 -110.4717 262° West 297 342 43,000  Level Salt Lake Center
20:51 42.9636 -110.5808 262° West 300 345 43,000  Level Salt Lake Center
20:52 42.9508 -110.7017 262° West 293 337 43,000  Level Salt Lake Center
20:53 42.9394 -110.8083 262° West 294 338 43,000  Level Salt Lake Center
20:54 42.9258 -110.9331 262° West 297 342 43,000  Level Salt Lake Center
20:55 42.9144 -111.0361 261° West 291 335 43,000  Level Salt Lake Center
20:56 42.9019 -111.1558 262° West 286 329 43,000  Level Salt Lake Center
20:57 42.8892 -111.2608 261° West 291 335 43,000  Level Salt Lake Center
20:58 42.8786 -111.3633 262° West 287 330 43,000  Level Salt Lake Center
20:59 42.8644 -111.4836 261° West 288 331 43,000  Level Salt Lake Center
21:00 42.8528 -111.5869 261° West 289 333 43,000  Level Salt Lake Center
21:01 42.8392 -111.7083 261° West 290 334 43,000  Level Salt Lake Center
21:02 42.8258 -111.8133 260° West 293 337 43,000 -480 Level Salt Lake Center
21:03 42.8125 -111.9369 262° West 297 342 42,100 -1,260 Descending Salt Lake Center
21:04 42.8000 -112.0400 261° West 292 336 40,500 -1,740 Descending Salt Lake Center
21:05 42.7861 -112.1522 260° West 272 313 38,600 -1,680 Descending Salt Lake Center
21:06 42.7747 -112.2481 261° West 269 310 37,100 -1,440 Descending Salt Lake Center
21:07 42.7631 -112.3439 261° West 269 310 35,700 -1,500 Descending Salt Lake Center
21:08 42.7497 -112.4583 261° West 274 315 34,000 -1,560 Descending Salt Lake Center
21:09 42.7378 -112.5531 260° West 269 310 32,500 -1,500 Descending Salt Lake Center
21:10 42.7258 -112.6606 261° West 259 298 30,900 -1,560 Descending Salt Lake Center
21:11 42.7128 -112.7519 259° West 258 297 29,400 -1,620 Descending Salt Lake Center
21:12 42.6989 -112.8603 260° West 260 299 27,700 -1,500 Descending Salt Lake Center
21:13 42.6878 -112.9492 260° West 259 298 26,400 -1,380 Descending Salt Lake Center
21:15 42.6767 -113.0444 261° West 256 295 24,900 -1,500 Descending Salt Lake Center
21:16 42.6664 -113.1372 261° West 252 290 23,400 -1,620 Descending Salt Lake Center
21:17 42.6533 -113.2464 261° West 246 283 21,600 -1,620 Descending Salt Lake Center
21:18 42.6436 -113.3317 261° West 237 273 20,100 -1,500 Descending Salt Lake Center
21:19 42.6336 -113.4128 261° West 226 260 18,600 -1,560 Descending Salt Lake Center
21:20 42.6239 -113.4944 261° West 222 255 17,000 -1,440 Descending Salt Lake Center
21:21 42.6156 -113.5672 261° West 207 238 15,700 -1,320 Descending Salt Lake Center
21:22 42.6078 -113.6331 261° West 188 216 14,300 -1,440 Descending Salt Lake Center
21:23 42.6000 -113.6997 261° West 182 209 12,800 -1,620 Descending Salt Lake Center
21:24 42.5897 -113.7833 261° West 185 213 11,100 -1,380 Descending Salt Lake Center
21:25 42.5811 -113.8575 261° West 194 223 10,000 -1,020 Descending Salt Lake Center
21:26 42.5772 -113.9211 265° West 167 192 9,100 -900 Descending Salt Lake Center